Time,TemperatureF,DewpointF,PressureIn,WindDirection,WindDirectionDegrees,WindSpeedMPH,WindSpeedGustMPH,Humidity,HourlyPrecipIn,Conditions,Clouds,dailyrainin,SoftwareType,DateUTC
2013-06-07 00:00:00,65.0,-99.9,-100.00,West,281,5.0,-999.0,-999,0.00,,,0.00,,2013-06-07 05:00:00,
2013-06-07 00:03:00,66.0,-99.9,-100.00,WNW,297,5.0,-999.0,-999,0.00,,,0.00,,2013-06-07 05:03:00,
2013-06-07 00:12:00,66.0,-99.9,-100.00,WNW,297,5.0,-999.0,-999,0.00,,,0.00,,2013-06-07 05:12:00,
2013-06-07 00:23:00,66.0,-99.9,-100.00,WNW,297,5.0,-999.0,-999,0.00,,,0.00,,2013-06-07 05:23:00,
2013-06-07 00:32:00,65.0,-99.9,-100.00,West,281,5.0,-999.0,-999,0.00,,,0.00,,2013-06-07 05:32:00,
2013-06-07 00:43:00,65.0,-99.9,-100.00,West,281,5.0,-999.0,-999,0.00,,,0.00,,2013-06-07 05:43:00,
2013-06-07 00:52:00,65.0,-99.9,-100.00,West,281,5.0,-999.0,-999,0.00,,,0.00,,2013-06-07 05:52:00,
2013-06-07 01:32:00,63.0,-99.9,-100.00,WNW,286,3.0,-999.0,-999,0.00,,,0.00,,2013-06-07 06:32:00,
2013-06-07 01:43:00,63.0,-99.9,-100.00,WNW,286,3.0,-999.0,-999,0.00,,,0.00,,2013-06-07 06:43:00,
2013-06-07 01:52:00,63.0,-99.9,-100.00,WNW,288,5.0,-999.0,-999,0.00,,,0.00,,2013-06-07 06:52:00,
2013-06-07 02:02:00,63.0,-99.9,-100.00,WNW,288,5.0,-999.0,-999,0.00,,,0.00,,2013-06-07 07:02:00,
2013-06-07 02:12:00,63.0,-99.9,-100.00,WNW,288,5.0,-999.0,-999,0.00,,,0.00,,2013-06-07 07:12:00,
2013-06-07 02:22:00,63.0,-99.9,-100.00,WNW,288,5.0,-999.0,-999,0.00,,,0.00,,2013-06-07 07:22:00,
2013-06-07 02:32:00,62.0,-99.9,-100.00,WNW,302,5.0,-999.0,-999,0.00,,,0.00,,2013-06-07 07:32:00,
2013-06-07 02:42:00,62.0,-99.9,-100.00,WNW,302,5.0,-999.0,-999,0.00,,,0.00,,2013-06-07 07:42:00,
2013-06-07 02:52:00,62.0,-99.9,-100.00,WNW,302,5.0,-999.0,-999,0.00,,,0.00,,2013-06-07 07:52:00,
2013-06-07 03:02:00,63.0,-99.9,-100.00,NW,310,8.0,-999.0,-999,0.00,,,0.00,,2013-06-07 08:02:00,
2013-06-07 03:12:00,63.0,-99.9,-100.00,NW,310,8.0,-999.0,-999,0.00,,,0.00,,2013-06-07 08:12:00,
2013-06-07 03:22:00,63.0,-99.9,-100.00,NW,310,8.0,-999.0,-999,0.00,,,0.00,,2013-06-07 08:22:00,
2013-06-07 03:32:00,63.0,-99.9,-100.00,NW,318,9.0,-999.0,-999,0.00,,,0.00,,2013-06-07 08:32:00,
2013-06-07 03:43:00,63.0,-99.9,-100.00,NW,318,9.0,-999.0,-999,0.00,,,0.00,,2013-06-07 08:43:00,
2013-06-07 03:52:00,63.0,-99.9,-100.00,NW,318,7.0,-999.0,-999,0.00,,,0.00,,2013-06-07 08:52:00,
2013-06-07 04:02:00,63.0,-99.9,-100.00,NW,318,7.0,-999.0,-999,0.00,,,0.00,,2013-06-07 09:02:00,
2013-06-07 04:12:00,63.0,-99.9,-100.00,NW,318,7.0,-999.0,-999,0.00,,,0.00,,2013-06-07 09:12:00,
2013-06-07 04:22:00,63.0,-99.9,-100.00,NW,318,7.0,-999.0,-999,0.00,,,0.00,,2013-06-07 09:22:00,
2013-06-07 04:33:00,62.0,-99.9,-100.00,WNW,288,4.0,-999.0,-999,0.00,,,0.00,,2013-06-07 09:33:00,
2013-06-07 04:43:00,62.0,-99.9,-100.00,WNW,288,4.0,-999.0,-999,0.00,,,0.00,,2013-06-07 09:43:00,
2013-06-07 04:53:00,61.0,-99.9,-100.00,WNW,296,5.0,-999.0,-999,0.00,,,0.00,,2013-06-07 09:53:00,
2013-06-07 05:03:00,61.0,-99.9,-100.00,WNW,296,5.0,-999.0,-999,0.00,,,0.00,,2013-06-07 10:03:00,
2013-06-07 05:13:00,61.0,-99.9,-100.00,WNW,296,5.0,-999.0,-999,0.00,,,0.00,,2013-06-07 10:13:00,
2013-06-07 05:23:00,61.0,-99.9,-100.00,WNW,296,5.0,-999.0,-999,0.00,,,0.00,,2013-06-07 10:23:00,
2013-06-07 05:33:00,59.0,-99.9,-100.00,WNW,290,4.0,-999.0,-999,0.00,,,0.00,,2013-06-07 10:33:00,
2013-06-07 05:43:00,59.0,-99.9,-100.00,WNW,290,4.0,-999.0,-999,0.00,,,0.00,,2013-06-07 10:43:00,
2013-06-07 05:53:00,59.0,-99.9,-100.00,WNW,290,4.0,-999.0,-999,0.00,,,0.00,,2013-06-07 10:53:00,
2013-06-07 06:02:00,59.0,-99.9,-100.00,WNW,291,3.0,-999.0,-999,0.00,,,0.00,,2013-06-07 11:02:00,
2013-06-07 06:13:00,59.0,-99.9,-100.00,WNW,291,3.0,-999.0,-999,0.00,,,0.00,,2013-06-07 11:13:00,
2013-06-07 06:22:00,59.0,-99.9,-100.00,WNW,291,3.0,-999.0,-999,0.00,,,0.00,,2013-06-07 11:22:00,
2013-06-07 06:32:00,59.0,-99.9,-100.00,West,276,4.0,-999.0,-999,0.00,,,0.00,,2013-06-07 11:32:00,
2013-06-07 06:42:00,59.0,-99.9,-100.00,West,276,4.0,-999.0,-999,0.00,,,0.00,,2013-06-07 11:42:00,
2013-06-07 06:53:00,59.0,-99.9,-100.00,West,276,4.0,-999.0,-999,0.00,,,0.00,,2013-06-07 11:53:00,
2013-06-07 07:02:00,60.0,-99.9,-100.00,NW,308,5.0,-999.0,-999,0.00,,,0.00,,2013-06-07 12:02:00,
2013-06-07 07:13:00,60.0,-99.9,-100.00,NW,308,5.0,-999.0,-999,0.00,,,0.00,,2013-06-07 12:13:00,
2013-06-07 07:22:00,60.0,-99.9,-100.00,NW,308,5.0,-999.0,-999,0.00,,,0.00,,2013-06-07 12:22:00,
2013-06-07 07:33:00,61.0,-99.9,-100.00,NW,321,9.0,-999.0,-999,0.00,,,0.00,,2013-06-07 12:33:00,
2013-06-07 07:42:00,61.0,-99.9,-100.00,NW,321,9.0,-999.0,-999,0.00,,,0.00,,2013-06-07 12:42:00,
2013-06-07 07:52:00,61.0,-99.9,-100.00,NW,326,8.0,-999.0,-999,0.00,,,0.00,,2013-06-07 12:52:00,
2013-06-07 08:02:00,61.0,-99.9,-100.00,NW,326,8.0,-999.0,-999,0.00,,,0.00,,2013-06-07 13:02:00,
2013-06-07 08:13:00,61.0,-99.9,-100.00,NW,326,8.0,-999.0,-999,0.00,,,0.00,,2013-06-07 13:13:00,
2013-06-07 08:22:00,61.0,-99.9,-100.00,NW,326,8.0,-999.0,-999,0.00,,,0.00,,2013-06-07 13:22:00,
2013-06-07 08:33:00,62.0,-99.9,-100.00,NNW,327,7.0,-999.0,-999,0.00,,,0.00,,2013-06-07 13:33:00,
2013-06-07 08:43:00,62.0,-99.9,-100.00,NNW,327,7.0,-999.0,-999,0.00,,,0.00,,2013-06-07 13:43:00,
2013-06-07 08:52:00,62.0,-99.9,-100.00,NNW,327,7.0,-999.0,-999,0.00,,,0.00,,2013-06-07 13:52:00,
2013-06-07 09:03:00,63.0,-99.9,-100.00,NNW,338,7.0,-999.0,-999,0.00,,,0.00,,2013-06-07 14:03:00,
2013-06-07 09:13:00,63.0,-99.9,-100.00,NNW,338,7.0,-999.0,-999,0.00,,,0.00,,2013-06-07 14:13:00,
2013-06-07 09:23:00,63.0,-99.9,-100.00,NNW,338,7.0,-999.0,-999,0.00,,,0.00,,2013-06-07 14:23:00,
2013-06-07 09:33:00,63.0,-99.9,-100.00,NW,320,7.0,-999.0,-999,0.00,,,0.00,,2013-06-07 14:33:00,
2013-06-07 09:42:00,63.0,-99.9,-100.00,NW,320,7.0,-999.0,-999,0.00,,,0.00,,2013-06-07 14:42:00,
2013-06-07 09:52:00,63.0,-99.9,-100.00,NW,320,7.0,-999.0,-999,0.00,,,0.00,,2013-06-07 14:52:00,
2013-06-07 10:03:00,65.0,-99.9,-100.00,NW,324,9.0,-999.0,-999,0.00,,,0.00,,2013-06-07 15:03:00,
2013-06-07 10:13:00,65.0,-99.9,-100.00,NW,324,9.0,-999.0,-999,0.00,,,0.00,,2013-06-07 15:13:00,
2013-06-07 10:23:00,65.0,-99.9,-100.00,NW,324,9.0,-999.0,-999,0.00,,,0.00,,2013-06-07 15:23:00,
2013-06-07 10:33:00,66.0,-99.9,-100.00,NNW,348,8.0,-999.0,-999,0.00,,,0.00,,2013-06-07 15:33:00,
2013-06-07 10:43:00,66.0,-99.9,-100.00,NNW,348,8.0,-999.0,-999,0.00,,,0.00,,2013-06-07 15:43:00,
2013-06-07 10:53:00,67.0,-99.9,-100.00,NW,320,10.0,-999.0,-999,0.00,,,0.00,,2013-06-07 15:53:00,
2013-06-07 11:03:00,67.0,-99.9,-100.00,NW,320,10.0,-999.0,-999,0.00,,,0.00,,2013-06-07 16:03:00,
2013-06-07 11:13:00,67.0,-99.9,-100.00,NW,320,10.0,-999.0,-999,0.00,,,0.00,,2013-06-07 16:13:00,
2013-06-07 11:22:00,67.0,-99.9,-100.00,NW,320,10.0,-999.0,-999,0.00,,,0.00,,2013-06-07 16:22:00,
2013-06-07 11:33:00,66.0,-99.9,-100.00,NW,310,8.0,-999.0,-999,0.00,,,0.00,,2013-06-07 16:33:00,
2013-06-07 11:43:00,66.0,-99.9,-100.00,NW,310,8.0,-999.0,-999,0.00,,,0.00,,2013-06-07 16:43:00,
2013-06-07 11:53:00,67.0,-99.9,-100.00,NW,323,8.0,-999.0,-999,0.00,,,0.00,,2013-06-07 16:53:00,
2013-06-07 12:03:00,67.0,-99.9,-100.00,NW,323,8.0,-999.0,-999,0.00,,,0.00,,2013-06-07 17:03:00,
2013-06-07 12:13:00,67.0,-99.9,-100.00,NW,323,8.0,-999.0,-999,0.00,,,0.00,,2013-06-07 17:13:00,
2013-06-07 12:23:00,67.0,-99.9,-100.00,NW,323,8.0,-999.0,-999,0.00,,,0.00,,2013-06-07 17:23:00,
2013-06-07 12:32:00,68.0,-99.9,-100.00,NNW,333,8.0,-999.0,-999,0.00,,,0.00,,2013-06-07 17:32:00,
2013-06-07 12:43:00,68.0,-99.9,-100.00,NNW,333,8.0,-999.0,-999,0.00,,,0.00,,2013-06-07 17:43:00,
2013-06-07 12:53:00,69.0,-99.9,-100.00,NNW,337,9.0,-999.0,-999,0.00,,,0.00,,2013-06-07 17:53:00,
2013-06-07 13:00:00,70.0,-99.9,-100.00,NNW,345,9.0,-999.0,-999,0.00,,,0.00,,2013-06-07 18:00:00,
2013-06-07 13:11:00,69.0,-99.9,-100.00,NNW,337,9.0,-999.0,-999,0.00,,,0.00,,2013-06-07 18:11:00,
2013-06-07 13:29:00,69.0,-99.9,-100.00,NNW,337,9.0,-999.0,-999,0.00,,,0.00,,2013-06-07 18:29:00,
2013-06-07 13:30:00,70.0,-99.9,-100.00,NNW,327,9.0,-999.0,-999,0.00,,,0.00,,2013-06-07 18:30:00,
2013-06-07 13:38:00,70.0,-99.9,-100.00,NNW,345,9.0,-999.0,-999,0.00,,,0.00,,2013-06-07 18:38:00,
2013-06-07 13:47:00,70.0,-99.9,-100.00,NNW,345,9.0,-999.0,-999,0.00,,,0.00,,2013-06-07 18:47:00,
2013-06-07 14:10:00,70.0,-99.9,-100.00,NNW,327,9.0,-999.0,-999,0.00,,,0.00,,2013-06-07 19:10:00,
2013-06-07 14:17:00,70.0,-99.9,-100.00,NNW,327,9.0,-999.0,-999,0.00,,,0.00,,2013-06-07 19:17:00,
2013-06-07 14:52:00,71.0,-99.9,-100.00,NW,320,10.0,-999.0,-999,0.00,,,0.00,,2013-06-07 19:52:00,
2013-06-07 15:09:00,70.0,-99.9,-100.00,North,350,11.0,-999.0,-999,0.00,,,0.00,,2013-06-07 20:09:00,
2013-06-07 15:18:00,70.0,-99.9,-100.00,North,350,11.0,-999.0,-999,0.00,,,0.00,,2013-06-07 20:18:00,
2013-06-07 15:28:00,70.0,-99.9,-100.00,North,350,11.0,-999.0,-999,0.00,,,0.00,,2013-06-07 20:28:00,
2013-06-07 15:30:00,72.0,-99.9,-100.00,NNW,346,8.0,-999.0,-999,0.00,,,0.00,,2013-06-07 20:30:00,
2013-06-07 15:43:00,71.0,-99.9,-100.00,North,351,8.0,-999.0,-999,0.00,,,0.00,,2013-06-07 20:43:00,
2013-06-07 15:53:00,71.0,-99.9,-100.00,North,351,8.0,-999.0,-999,0.00,,,0.00,,2013-06-07 20:53:00,
2013-06-07 15:59:00,72.0,-99.9,-100.00,NNW,346,8.0,-999.0,-999,0.00,,,0.00,,2013-06-07 20:59:00,
2013-06-07 16:09:00,72.0,-99.9,-100.00,NNW,346,8.0,-999.0,-999,0.00,,,0.00,,2013-06-07 21:09:00,
2013-06-07 16:20:00,72.0,-99.9,-100.00,NNW,346,8.0,-999.0,-999,0.00,,,0.00,,2013-06-07 21:20:00,
2013-06-07 16:30:00,71.0,-99.9,-100.00,North,358,8.0,-999.0,-999,0.00,,,0.00,,2013-06-07 21:30:00,
2013-06-07 16:43:00,71.0,-99.9,-100.00,North,360,10.0,-999.0,-999,0.00,,,0.00,,2013-06-07 21:43:00,
2013-06-07 17:00:00,74.0,-99.9,-100.00,North,3,6.0,-999.0,-999,0.00,,,0.00,,2013-06-07 22:00:00,
2013-06-07 17:04:00,71.0,-99.9,-100.00,North,358,8.0,-999.0,-999,0.00,,,0.00,,2013-06-07 22:04:00,
2013-06-07 17:10:00,71.0,-99.9,-100.00,North,358,8.0,-999.0,-999,0.00,,,0.00,,2013-06-07 22:10:00,
2013-06-07 17:24:00,71.0,-99.9,-100.00,North,358,8.0,-999.0,-999,0.00,,,0.00,,2013-06-07 22:24:00,
2013-06-07 17:30:00,72.0,-99.9,-100.00,North,360,9.0,-999.0,-999,0.00,,,0.00,,2013-06-07 22:30:00,
2013-06-07 17:40:00,74.0,-99.9,-100.00,North,3,6.0,-999.0,-999,0.00,,,0.00,,2013-06-07 22:40:00,
2013-06-07 17:50:00,74.0,-99.9,-100.00,North,3,6.0,-999.0,-999,0.00,,,0.00,,2013-06-07 22:50:00,
2013-06-07 18:00:00,72.0,-99.9,-100.00,NNW,344,8.0,-999.0,-999,0.00,,,0.00,,2013-06-07 23:00:00,
2013-06-07 18:11:00,72.0,-99.9,-100.00,North,360,9.0,-999.0,-999,0.00,,,0.00,,2013-06-07 23:11:00,
2013-06-07 18:21:00,72.0,-99.9,-100.00,North,360,9.0,-999.0,-999,0.00,,,0.00,,2013-06-07 23:21:00,
2013-06-07 18:30:00,72.0,-99.9,-100.00,NNW,331,8.0,-999.0,-999,0.00,,,-99.99,,2013-06-07 23:30:00,
2013-06-07 18:43:00,72.0,-99.9,-100.00,NNW,344,8.0,-999.0,-999,0.00,,,0.00,,2013-06-07 23:43:00,
2013-06-07 18:57:00,72.0,-99.9,-100.00,NNW,344,8.0,-999.0,-999,0.00,,,0.00,,2013-06-07 23:57:00,
2013-06-07 19:14:00,72.0,-99.9,-100.00,NNW,331,8.0,-999.0,-999,0.00,,,-99.99,,2013-06-08 00:14:00,
2013-06-07 19:20:00,72.0,-99.9,-100.00,NNW,331,8.0,-999.0,-999,0.00,,,-99.99,,2013-06-08 00:20:00,
2013-06-07 19:30:00,72.0,-99.9,-100.00,NNW,343,5.0,-999.0,-999,0.00,,,0.00,,2013-06-08 00:30:00,
2013-06-07 20:03:00,72.0,-99.9,-100.00,NNW,343,5.0,-999.0,-999,0.00,,,0.00,,2013-06-08 01:03:00,
2013-06-07 20:08:00,72.0,-99.9,-100.00,NNW,343,5.0,-999.0,-999,0.00,,,0.00,,2013-06-08 01:08:00,
2013-06-07 20:22:00,72.0,-99.9,-100.00,NNW,343,5.0,-999.0,-999,0.00,,,0.00,,2013-06-08 01:22:00,
2013-06-07 20:30:00,66.0,-99.9,-100.00,SW,231,3.0,-999.0,-999,0.00,,,0.00,,2013-06-08 01:30:00,
2013-06-07 20:40:00,71.0,-99.9,-100.00,NNE,16,4.0,-999.0,-999,0.00,,,0.00,,2013-06-08 01:40:00,
2013-06-07 20:50:00,71.0,-99.9,-100.00,NNE,16,4.0,-999.0,-999,0.00,,,0.00,,2013-06-08 01:50:00,
2013-06-07 21:05:00,66.0,-99.9,-100.00,SW,231,3.0,-999.0,-999,0.00,,,0.00,,2013-06-08 02:05:00,
2013-06-07 21:13:00,66.0,-99.9,-100.00,SW,231,3.0,-999.0,-999,0.00,,,0.00,,2013-06-08 02:13:00,
2013-06-07 21:18:00,66.0,-99.9,-100.00,SW,231,3.0,-999.0,-999,0.00,,,0.00,,2013-06-08 02:18:00,
2013-06-07 21:37:00,65.0,-99.9,-100.00,SW,234,2.0,-999.0,-999,0.00,,,0.00,,2013-06-08 02:37:00,
2013-06-07 21:49:00,65.0,-99.9,-100.00,SW,234,2.0,-999.0,-999,0.00,,,0.00,,2013-06-08 02:49:00,
2013-06-07 22:01:00,64.0,-99.9,-100.00,WSW,239,2.0,-999.0,-999,0.00,,,0.00,,2013-06-08 03:01:00,
2013-06-07 22:14:00,64.0,-99.9,-100.00,WSW,239,2.0,-999.0,-999,0.00,,,0.00,,2013-06-08 03:14:00,
2013-06-07 22:19:00,64.0,-99.9,-100.00,WSW,239,2.0,-999.0,-999,0.00,,,0.00,,2013-06-08 03:19:00,
2013-06-07 22:27:00,64.0,-99.9,-100.00,WSW,239,2.0,-999.0,-999,0.00,,,0.00,,2013-06-08 03:27:00,
2013-06-07 22:40:00,64.0,-99.9,-100.00,WSW,243,3.0,-999.0,-999,0.00,,,0.00,,2013-06-08 03:40:00,
2013-06-07 22:54:00,64.0,-99.9,-100.00,WSW,243,3.0,-999.0,-999,0.00,,,0.00,,2013-06-08 03:54:00,
2013-06-07 23:01:00,64.0,-99.9,-100.00,SW,234,2.0,-999.0,-999,0.00,,,0.00,,2013-06-08 04:01:00,
2013-06-07 23:13:00,64.0,-99.9,-100.00,SW,234,2.0,-999.0,-999,0.00,,,0.00,,2013-06-08 04:13:00,
2013-06-07 23:23:00,64.0,-99.9,-100.00,SW,234,2.0,-999.0,-999,0.00,,,0.00,,2013-06-08 04:23:00,
2013-06-07 23:33:00,63.0,-99.9,-100.00,WSW,240,2.0,-999.0,-999,0.00,,,0.00,,2013-06-08 04:33:00,
2013-06-07 23:42:00,63.0,-99.9,-100.00,WSW,240,2.0,-999.0,-999,0.00,,,0.00,,2013-06-08 04:42:00,
2013-06-07 23:53:00,63.0,-99.9,-100.00,WSW,240,2.0,-999.0,-999,0.00,,,0.00,,2013-06-08 04:53:00,